TimeMDT,TemperatureF,Dew PointF,Humidity,Sea Level PressureIn,VisibilityMPH,Wind Direction,Wind SpeedMPH,Gust SpeedMPH,PrecipitationIn,Events,Conditions,WindDirDegrees,DateUTC
12:53 AM,69.1,48.9,49,29.73,10.0,ESE,10.4,-,N/A,,Clear,110,2013-06-14 06:53:00
1:53 AM,73.0,48.0,41,29.71,10.0,SSE,17.3,-,N/A,,Clear,160,2013-06-14 07:53:00
2:53 AM,73.9,48.0,40,29.69,10.0,SSE,20.7,28.8,N/A,,Clear,150,2013-06-14 08:53:00
3:53 AM,73.0,50.0,44,29.67,10.0,SE,15.0,31.1,N/A,,Clear,140,2013-06-14 09:53:00
4:53 AM,71.1,53.1,53,29.71,10.0,WNW,4.6,-,N/A,,Clear,290,2013-06-14 10:53:00
5:53 AM,66.9,52.0,59,29.73,10.0,West,4.6,-,N/A,,Clear,280,2013-06-14 11:53:00
6:53 AM,70.0,46.9,44,29.73,10.0,West,23.0,31.1,N/A,,Clear,280,2013-06-14 12:53:00
7:53 AM,66.0,54.0,65,29.80,10.0,WNW,18.4,32.2,N/A,,Clear,300,2013-06-14 13:53:00
8:53 AM,66.9,52.0,59,29.85,10.0,WNW,20.7,29.9,N/A,,Clear,300,2013-06-14 14:53:00
9:53 AM,73.0,52.0,48,29.84,10.0,WNW,19.6,26.5,N/A,,Clear,300,2013-06-14 15:53:00
10:53 AM,77.0,48.9,37,29.83,10.0,NW,15.0,24.2,N/A,,Clear,310,2013-06-14 16:53:00
11:53 AM,82.9,48.9,31,29.81,10.0,NNW,17.3,24.2,N/A,,Clear,330,2013-06-14 17:53:00
12:53 PM,87.1,45.0,23,29.79,10.0,NW,11.5,24.2,N/A,,Clear,320,2013-06-14 18:53:00
1:53 PM,90.0,41.0,18,29.76,10.0,NNW,18.4,25.3,N/A,,Clear,330,2013-06-14 19:53:00
2:53 PM,91.0,37.0,15,29.75,10.0,NW,15.0,-,N/A,,Clear,310,2013-06-14 20:53:00
3:53 PM,91.0,35.1,14,29.73,10.0,NNW,13.8,17.3,N/A,,Clear,330,2013-06-14 21:53:00
4:53 PM,91.0,37.0,15,29.71,10.0,NW,6.9,-,N/A,,Clear,320,2013-06-14 22:53:00
5:53 PM,90.0,35.1,14,29.73,10.0,SE,3.5,-,N/A,,Clear,140,2013-06-14 23:53:00
6:53 PM,82.9,52.0,34,29.75,10.0,SE,13.8,-,N/A,,Clear,140,2013-06-15 00:53:00
7:53 PM,82.9,53.1,36,29.78,10.0,ESE,13.8,-,N/A,,Clear,110,2013-06-15 01:53:00
8:53 PM,79.0,53.1,40,29.79,10.0,ESE,13.8,-,N/A,,Clear,110,2013-06-15 02:53:00
9:53 PM,75.9,53.1,45,29.83,10.0,South,8.1,-,N/A,,Scattered Clouds,170,2013-06-15 03:53:00
10:53 PM,72.0,48.9,44,29.87,10.0,SW,17.3,21.9,0.00,Rain,Light Rain,230,2013-06-15 04:53:00
11:53 PM,72.0,46.9,41,29.85,10.0,South,17.3,24.2,0.00,Rain,Light Rain,190,2013-06-15 05:53:00